Scottsdale, AZ

12:28 PM MST on November 23, 2017 (GMT -0700)
Scottsdale

Weather History for KSDL - October, 2011

Change the Weather History Date:

Sunday, October 2, 2011

  Actual Average Record
Temperature  
Mean Temperature 86 °F -  
Max Temperature 96 °F 90 °F 100 °F (2012)
Min Temperature 77 °F 68 °F 59 °F (2002)
Cooling Degree Days 22    
Growing Degree Days 36 (Base 50)    
Moisture  
Dew Point 49 °F    
Average Humidity 27    
Maximum Humidity 43    
Minimum Humidity 19    
Precipitation  
Precipitation 0.00 in - - ()
Sea Level Pressure  
Sea Level Pressure 29.86 in    
Wind  
Wind Speed 2 mph (South)    
Max Wind Speed 9 mph    
Max Gust Speed -    
Visibility 10 miles    
Events      
Averages and records for this station are not official NWS values.
T = Trace of Precipitation, MM = Missing Value Source: NWS Daily Summary

Daily Weather History Graph

Daily Weather History Graph

Search for Another Location

Airport or City:

Trip Planner

Search our weather history database for the weather conditions in past years. The results will help you decide how hot, cold, wet, or windy it might be!

Date:

Astronomy

Oct. 02, 2011 Rise Set
Actual Time 6:22 AM MST 6:10 PM MST
Civil Twilight 5:57 AM MST 6:35 PM MST
Nautical Twilight 5:28 AM MST 7:04 PM MST
Astronomical Twilight 4:59 AM MST 7:33 PM MST
Moon 12:16 PM MST (10/2) 10:29 PM MST (10/2)
Length of Visible Light 12h 38m
Length of Day
11h 48m
Waxing Crescent, 36% of the Moon is Illuminated
Oct 2
Waxing Crescent
Oct 3
First Quarter
Oct 11
Full
Oct 19
Last Quarter
Oct 26
New

Hourly Weather History & Observations

Time (MST) Temp. Dew Point Humidity Pressure Visibility Wind Dir Wind Speed Gust Speed Precip Events Conditions
12:53 AM 82.0 °F 51.1 °F 34% 29.89 in 10.0 mi Calm Calm - N/A   Clear
1:53 AM 81.0 °F 52.0 °F 36% 29.90 in 10.0 mi ESE 3.5 mph - N/A   Clear
3:53 AM 80.1 °F 51.1 °F 36% 29.89 in 10.0 mi Calm Calm - N/A   Clear
4:53 AM 79.0 °F 51.1 °F 38% 29.89 in 10.0 mi Calm Calm - N/A   Clear
5:53 AM 77.0 °F 53.1 °F 43% 29.90 in 10.0 mi Calm Calm - N/A   Clear
8:53 AM 84.9 °F 52.0 °F 32% 29.94 in 10.0 mi SSW 3.5 mph - N/A   Clear
9:53 AM 89.1 °F 52.0 °F 28% 29.94 in 10.0 mi SSW 3.5 mph - N/A   Clear
10:53 AM 91.9 °F 50.0 °F 24% 29.93 in 10.0 mi Calm Calm - N/A   Clear
11:53 AM 93.9 °F 50.0 °F 22% 29.91 in 10.0 mi South 5.8 mph - N/A   Clear
12:53 PM 95.0 °F 50.0 °F 22% 29.87 in 10.0 mi South 9.2 mph - N/A   Clear
1:53 PM 95.0 °F 50.0 °F 22% 29.85 in 10.0 mi South 5.8 mph - N/A   Clear
2:53 PM 96.1 °F 48.9 °F 20% 29.83 in 10.0 mi South 4.6 mph - N/A   Clear
3:53 PM 96.1 °F 48.0 °F 19% 29.81 in 10.0 mi Variable 4.6 mph - N/A   Clear
4:53 PM 96.1 °F 46.9 °F 19% 29.81 in 10.0 mi SW 5.8 mph - N/A   Clear
5:53 PM 95.0 °F 48.0 °F 20% 29.80 in 10.0 mi West 5.8 mph - N/A   Clear
6:53 PM 93.0 °F 46.0 °F 20% 29.81 in 10.0 mi Calm Calm - N/A   Clear
7:53 PM 89.1 °F 48.0 °F 24% 29.82 in 10.0 mi Calm Calm - N/A   Clear
8:53 PM 87.1 °F 48.9 °F 27% 29.83 in 10.0 mi Calm Calm - N/A   Clear
9:53 PM 87.1 °F 46.0 °F 24% 29.83 in 10.0 mi NE 8.1 mph - N/A   Clear
10:53 PM 87.1 °F 46.0 °F 24% 29.83 in 10.0 mi Calm Calm - N/A   Clear